Simultaneous Nadir Overpasses (SNOs) Predictions

Prediction of SNOs between GOES-15 and METOP-B Satellite Orbit:

Table of predicted SNOs for the next 14.0 days since TLE Epoch: 8/29/2025
Index Date Time (GOES-15) GOES-15 Lat,Lon METOP-B Lat,Lon Distance(km) Time Diff (sec)
1 08/31/2025 05:04:16 0.28, 61.48 0.64, 59.80 191.23 80
2 09/01/2025 04:40:58 0.24, 61.47 -0.46, 64.78 376.58 80
3 09/02/2025 17:02:39 -0.30, 61.55 -0.62, 60.16 158.03 80
4 09/03/2025 16:39:22 -0.26, 61.54 0.55, 65.13 409.58 80
5 09/05/2025 05:00:54 0.32, 61.42 0.49, 60.55 99.53 80
6 09/06/2025 04:37:36 0.27, 61.41 -0.62, 65.52 467.84 80
7 09/07/2025 16:59:17 -0.33, 61.50 -0.45, 60.91 67.42 80
8 09/08/2025 16:35:58 -0.29, 61.49 0.67, 65.88 499.87 80
9 09/10/2025 04:57:31 0.35, 61.38 0.37, 61.30 9.78 80
10 09/12/2025 16:53:13 -0.36, 61.48 -0.31, 61.66 20.84 80
